Simultaneous Nadir Overpasses (SNOs) Predictions

Prediction of SNOs between AQUA and NPP Satellite Orbit:

Table of predicted SNOs for the next 14.0 days since TLE Epoch: 10/19/2013
Index Date (AQUA) Time (AQUA) Lat,Lon (AQUA) SZA (AQUA ) Date (NPP) Time (NPP) Lat,Lon (NPP) SZA (NPP ) Distance(km) Time Diff (sec)
1 10/20/2013 13:16:19 73.94,-145.30 108.78 10/20/2013 13:15:49 73.94,-145.26 108.80 1.26 30
2 10/20/2013 14:05:17 -75.43, 26.08 72.75 10/20/2013 14:06:04 -75.44, 26.17 72.83 2.80 47
3 10/23/2013 04:43:41 -72.68, 160.37 69.10 10/23/2013 04:42:27 -72.69, 160.37 69.02 0.71 74
4 10/23/2013 05:32:37 74.22, -28.75 109.39 10/23/2013 05:32:40 74.21, -28.82 109.40 2.29 3
5 10/23/2013 06:17:19 -81.09,-136.74 85.59 10/23/2013 06:18:32 -80.42,-138.48 85.97 80.41 73
6 10/25/2013 20:59:47 -73.51, -82.06 69.04 10/25/2013 20:59:06 -73.51, -82.06 69.00 0.11 41
7 10/25/2013 21:48:48 74.77, 88.49 109.70 10/25/2013 21:49:24 74.76, 88.42 109.69 2.12 36
8 10/28/2013 13:16:01 -73.93, 34.75 68.60 10/28/2013 13:15:54 -73.92, 34.69 68.57 2.15 7
9 10/28/2013 14:04:54 75.57,-153.44 109.74 10/28/2013 14:06:03 75.58,-153.38 109.65 1.92 69
10 10/31/2013 04:43:14 72.91, -19.09 113.24 10/31/2013 04:42:24 72.91, -19.15 113.31 2.14 50




NCC Satellite Simultaneous Nadir Overpasses (SNOs) Prediction Service
